Location: Cleveland
(41.4990°N, 81.6960°W)
Time: 19:08:37
(UTC-04:00)

ISS - Pass Details

Date: 26 September 2021
Orbit: 417 x 423 km, 51.6° (Epoch: 18 October)

Event Time Altitude Azimuth Distance (km) Brightness Sun altitude
Rises 19:32:37 0° 288° (WNW) 2,360 1.9 -3.8°
Reaches altitude 10° 19:35:19 10° 311° (NW) 1,498 -0.1 -4.3°
Maximum altitude 19:37:28 16° 351° (N) 1,190 -1.3 -4.8°
Drops below altitude 10° 19:39:39 10° 31° (NNE) 1,501 -1.2 -5.2°
Enters shadow 19:42:00 - 53° (NE) 2,239 -0.5 -5.6°
